Вернуться в каталог

SL-6 R/B(2)

АктивенHEO
NORAD 16533·ROCKET BODY·🇷🇺 Russia

Запущен Feb 1, 1986 с Plesetsk Cosmodrome

Loading…

Ближайшие Пролёты (ближайшие 24 часа)

TLE

СвежийSource: Space-Track

Эпоха: Sep 13, 2026, 07:54 UTC

1 16533U 86011F   26256.32964429 -.00000390  00000-0  00000-0 0  9997
2 16533  71.0546 119.0723 5227443 359.6447 188.2787  2.04056213285853

Отслеживайте SL-6 R/B(2) в реальном времени с AllMySat

Download on the App Store